Stündliche Wetter Holovchyntsi

Heute, 24 Juni, Donnerstag

Zeit Temperatur Niederschläge Wind Luftdruck Luftfeuchtigkeit
00:00 +24°C° 0 mm 2 m/S 736 mmHg 95%
01:00 +24°C° 0 mm 2 m/S 736 mmHg 95%
02:00 +22°C° 0 mm 1 m/S 737 mmHg 96%
03:00 +20°C° 0 mm 2 m/S 737 mmHg 97%
04:00 +20°C° 0 mm 2 m/S 736 mmHg 99%
05:00 +19°C° 0 mm 2 m/S 737 mmHg 99%
06:00 +20°C° 0 mm 2 m/S 737 mmHg 99%
07:00 +21°C° 0 mm 2 m/S 737 mmHg 97%
08:00 +24°C° 0 mm 2 m/S 738 mmHg 95%
09:00 +26°C° 0 mm 1 m/S 738 mmHg 94%
10:00 +25°C° 0 mm 0 m/S 738 mmHg 93%
11:00 +28°C° 0 mm 1 m/S 738 mmHg 92%
12:00 +29°C° 0 mm 1 m/S 738 mmHg 89%
13:00 +29°C° 0 mm 1 m/S 738 mmHg 84%
14:00 +32°C° 0 mm 1 m/S 738 mmHg 59%
15:00 +31°C° 0 mm 1 m/S 738 mmHg 64%
16:00 +31°C° 0 mm 1 m/S 738 mmHg 64%
17:00 +31°C° 0 mm 1 m/S 737 mmHg 66%
18:00 +31°C° 0 mm 2 m/S 737 mmHg 72%
19:00 +30°C° 0 mm 2 m/S 736 mmHg 80%
20:00 +28°C° 0 mm 2 m/S 736 mmHg 86%
21:00 +27°C° 0 mm 2 m/S 736 mmHg 88%
22:00 +27°C° 0 mm 1 m/S 736 mmHg 88%
23:00 +26°C° 0 mm 1 m/S 736 mmHg 89%

Morgen, 25 Juni, Freitag

Zeit Temperatur Niederschläge Wind Luftdruck Luftfeuchtigkeit
00:00 +25°C° 0 mm 2 m/S 736 mmHg 91%
01:00 +25°C° 0 mm 1 m/S 735 mmHg 92%
02:00 +24°C° 0 mm 1 m/S 735 mmHg 91%
03:00 +23°C° 0 mm 1 m/S 735 mmHg 97%
04:00 +23°C° 0 mm 1 m/S 735 mmHg 97%
05:00 +21°C° 0 mm 2 m/S 734 mmHg 97%
06:00 +22°C° 0 mm 1 m/S 734 mmHg 100%
07:00 +23°C° 0 mm 1 m/S 735 mmHg 99%
08:00 +25°C° 0 mm 2 m/S 735 mmHg 97%
09:00 +26°C° 0 mm 2 m/S 735 mmHg 95%
10:00 +28°C° 0 mm 3 m/S 735 mmHg 92%
11:00 +29°C° 0 mm 3 m/S 735 mmHg 88%
12:00 +29°C° 0 mm 3 m/S 735 mmHg 87%
13:00 +30°C° 0 mm 4 m/S 735 mmHg 83%
14:00 +30°C° 0 mm 4 m/S 734 mmHg 84%
15:00 +32°C° 0 mm 4 m/S 735 mmHg 83%
16:00 +22°C° 1.5 mm 9 m/S 735 mmHg 90%
17:00 +24°C° 0 mm 6 m/S 735 mmHg 77%
18:00 +23°C° 0 mm 2 m/S 734 mmHg 88%
19:00 +23°C° 0 mm 2 m/S 734 mmHg 94%
20:00 +21°C° 0 mm 0 m/S 734 mmHg 96%
21:00 +23°C° 0 mm 1 m/S 734 mmHg 92%
22:00 +22°C° 0 mm 1 m/S 734 mmHg 90%
23:00 +22°C° 0 mm 1 m/S 735 mmHg 94%

übermorgen, 26 Juni, Samstag

Zeit Temperatur Niederschläge Wind Luftdruck Luftfeuchtigkeit
00:00 +22°C° 0 mm 1 m/S 735 mmHg 96%
01:00 +20°C° 0 mm 2 m/S 734 mmHg 99%
02:00 +20°C° 0 mm 2 m/S 734 mmHg 100%
03:00 +19°C° 0 mm 2 m/S 734 mmHg 100%
04:00 +19°C° 0 mm 2 m/S 734 mmHg 99%
05:00 +18°C° 0 mm 2 m/S 734 mmHg 99%
06:00 +19°C° 0 mm 2 m/S 734 mmHg 100%
07:00 +20°C° 0 mm 1 m/S 735 mmHg 100%
08:00 +18°C° 0 mm 0 m/S 735 mmHg 100%
09:00 +21°C° 0 mm 1 m/S 735 mmHg 100%
10:00 +21°C° 0 mm 2 m/S 735 mmHg 98%
11:00 +23°C° 0 mm 2 m/S 735 mmHg 97%
12:00 +24°C° 0 mm 2 m/S 735 mmHg 96%
13:00 +25°C° 0 mm 2 m/S 734 mmHg 94%
14:00 +25°C° 0 mm 1 m/S 734 mmHg 92%
15:00 +26°C° 0 mm 1 m/S 734 mmHg 88%
16:00 +27°C° 0 mm 1 m/S 733 mmHg 88%
17:00 +27°C° 0 mm 1 m/S 733 mmHg 86%
18:00 +27°C° 0 mm 2 m/S 733 mmHg 87%
19:00 +26°C° 0 mm 3 m/S 733 mmHg 93%
20:00 +23°C° 0.1 mm 4 m/S 734 mmHg 97%
21:00 +24°C° 0.1 mm 3 m/S 734 mmHg 98%
22:00 +22°C° 6.8 mm 4 m/S 735 mmHg 94%
23:00 +20°C° 11.9 mm 5 m/S 735 mmHg 95%

27 Juni, Sonntag

Zeit Temperatur Niederschläge Wind Luftdruck Luftfeuchtigkeit
00:00 +20°C° 0.4 mm 3 m/S 733 mmHg 94%
01:00 +19°C° 0 mm 5 m/S 733 mmHg 98%
02:00 +19°C° 0 mm 4 m/S 734 mmHg 99%
03:00 +20°C° 0 mm 1 m/S 734 mmHg 99%
04:00 +18°C° 0 mm 2 m/S 733 mmHg 100%
05:00 +18°C° 0 mm 2 m/S 734 mmHg 100%
06:00 +18°C° 0 mm 3 m/S 734 mmHg 100%
07:00 +19°C° 0 mm 2 m/S 734 mmHg 100%
08:00 +20°C° 0 mm 2 m/S 734 mmHg 100%
09:00 +20°C° 0 mm 3 m/S 735 mmHg 99%
10:00 +21°C° 0 mm 3 m/S 735 mmHg 98%
11:00 +21°C° 0 mm 3 m/S 735 mmHg 98%
12:00 +22°C° 0 mm 5 m/S 735 mmHg 95%
13:00 +22°C° 0 mm 6 m/S 735 mmHg 92%
14:00 +23°C° 0 mm 5 m/S 735 mmHg 91%
15:00 +23°C° 0 mm 5 m/S 735 mmHg 91%
16:00 +23°C° 0 mm 4 m/S 735 mmHg 89%
17:00 +23°C° 0 mm 4 m/S 735 mmHg 91%
18:00 +23°C° 0.1 mm 5 m/S 735 mmHg 90%
19:00 +22°C° 0 mm 4 m/S 735 mmHg 90%
20:00 +21°C° 0 mm 3 m/S 736 mmHg 92%
21:00 +20°C° 0 mm 3 m/S 736 mmHg 95%
22:00 +20°C° 0 mm 3 m/S 736 mmHg 97%
23:00 +19°C° 0 mm 3 m/S 736 mmHg 98%

28 Juni, Montag

Zeit Temperatur Niederschläge Wind Luftdruck Luftfeuchtigkeit
00:00 +19°C° 0 mm 4 m/S 736 mmHg 99%
01:00 +18°C° 0 mm 4 m/S 736 mmHg 100%
02:00 +18°C° 0 mm 4 m/S 736 mmHg 100%
03:00 +18°C° 0 mm 4 m/S 736 mmHg 100%
04:00 +17°C° 0 mm 4 m/S 736 mmHg 100%
05:00 +17°C° 0 mm 4 m/S 736 mmHg 100%
06:00 +17°C° 0 mm 4 m/S 736 mmHg 100%
07:00 +17°C° 0 mm 3 m/S 737 mmHg 100%
08:00 +17°C° 0 mm 4 m/S 737 mmHg 100%
09:00 +18°C° 0 mm 4 m/S 737 mmHg 97%
10:00 +20°C° 0 mm 4 m/S 738 mmHg 95%
11:00 +21°C° 0 mm 4 m/S 738 mmHg 91%
12:00 +22°C° 0 mm 4 m/S 738 mmHg 87%
13:00 +23°C° 0 mm 4 m/S 738 mmHg 82%
14:00 +23°C° 0 mm 4 m/S 738 mmHg 78%
15:00 +23°C° 0 mm 5 m/S 738 mmHg 84%
16:00 +23°C° 0 mm 4 m/S 737 mmHg 79%
17:00 +23°C° 0 mm 4 m/S 737 mmHg 80%
18:00 +24°C° 0 mm 3 m/S 737 mmHg 83%
19:00 +22°C° 0 mm 3 m/S 737 mmHg 88%
20:00 +21°C° 0 mm 2 m/S 737 mmHg 93%
21:00 +21°C° 0 mm 1 m/S 737 mmHg 95%
22:00 +21°C° 0 mm 1 m/S 737 mmHg 95%
23:00 +20°C° 0 mm 1 m/S 737 mmHg 96%

29 Juni, Dienstag

Zeit Temperatur Niederschläge Wind Luftdruck Luftfeuchtigkeit
00:00 +18°C° 0 mm 2 m/S 737 mmHg 97%
01:00 +18°C° 0 mm 2 m/S 737 mmHg 97%
02:00 +18°C° 0 mm 1 m/S 737 mmHg 98%
03:00 +18°C° 0 mm 1 m/S 737 mmHg 99%
04:00 +18°C° 0 mm 1 m/S 737 mmHg 100%
05:00 +18°C° 0 mm 1 m/S 737 mmHg 100%
06:00 +18°C° 0 mm 1 m/S 737 mmHg 100%
07:00 +17°C° 0 mm 0 m/S 737 mmHg 97%
08:00 +19°C° 0 mm 0 m/S 737 mmHg 95%
09:00 +20°C° 0 mm 0 m/S 737 mmHg 90%
10:00 +21°C° 0 mm 0 m/S 737 mmHg 85%
11:00 +21°C° 0 mm 0 m/S 737 mmHg 84%
12:00 +22°C° 0 mm 0 m/S 737 mmHg 81%
13:00 +23°C° 0 mm 0 m/S 737 mmHg 78%
14:00 +23°C° 0 mm 0 m/S 737 mmHg 76%
15:00 +24°C° 0 mm 0 m/S 737 mmHg 77%
16:00 +26°C° 0 mm 1 m/S 736 mmHg 80%
17:00 +26°C° 0 mm 2 m/S 736 mmHg 82%
18:00 +25°C° 0 mm 2 m/S 736 mmHg 83%
19:00 +25°C° 0 mm 1 m/S 735 mmHg 86%
20:00 +24°C° 0 mm 1 m/S 735 mmHg 93%
21:00 +23°C° 0 mm 1 m/S 735 mmHg 95%
22:00 +23°C° 0 mm 1 m/S 735 mmHg 97%
23:00 +22°C° 0 mm 1 m/S 735 mmHg 98%
Mehr zeigen

Wir brauchen deine Erlaubnis

Meteoprog und unser Service Anbieter werden persönliche Daten aufbewahren, so wie Cookies, Geräte Bezeichnung oder ähnliche Technologien von deinem Gerät und Prozess, so wie Persönliche Daten Inhalte und Werbungen, genauso wie social Media und den Verkehr zu analysieren.

  • Aufbewahrung und/oder Zugang zu deiner Geräte Informationen.

    Cookies, Geräte Bezeichnung oder andere Informationen, können aufbewahrt oder Zugang zu deinem Gerät erhalten, für den Grund, der oben angegeben wird.

  • Personalisierte Werbung und Inhalte, Messungen, Einblick in das Publikum und Produkt Entwicklung.

    Werbungen und Inhalte können personalisiert werden, basierend auf ein Profil. Mehr Daten können besser personalisierte Werbungen und Inhalte hinzufügen. Werbung und Inhalte können gezeigt und gemessen werden. Einblicke über das Publikum, welche die Werbung gesehen haben und den Inhalt, können abgeleitet werden. So wie Daten können genutzt werden, um es zu verbessern oder die Benutzer Erfahrung zu verbessern das System und die Software.

Wenn du “Ich stimme zu” klickst, erlaubst du uns, die Cookies zu benutzen die Geräte Bezeichnung, den Web oder ähnliche Technologien zu benutzen. Deine Settings, können in deinem Gerät bei deinem Browser geändert werden.

Für den bestimmten Zweck, berechtigten Interessen beruhen darauf, mehr als auf den Inhalt. Du kannst mehr darüber in unseren Privaten und Cookie Politik lesen.